Regional Weather Roundup
Issued by NWS Glasgow, MT

Home | Current Version | Previous Version | Text Only | Print | Product List | Glossary On
Versions: 1 2 3 4 5 6 7 8 9 10 11 12 13 14 15 16 17 18 19 20 21 22 23 24 25 26 27 28 29 30 31 32 33 34 35 36 37 38 39 40 41 42 43 44 45 46 47 48 49 50
000
ASUS45 KGGW 282215
RWRGGW
HOURLY WEATHER ROUNDUP FOR NORTHEAST MONTANA
NATIONAL WEATHER SERVICE GLASGOW MONTANA
400 PM MDT SAT MAR 28 2015

NOTE: "FAIR" INDICATES FEW OR NO CLOUDS BELOW 12,000 FEET WITH NO
SIGNIFICANT WEATHER AND/OR OBSTRUCTIONS TO VISISBILITY.

NORTHEAST MONTANA


CITY           SKY/WX    TMP DP  RH WIND       PRES   REMARKS
GLASGOW        LGT RAIN  52  40  63 W33G47    29.63R
PLENTYWOOD       N/A     67  42  40 NW13G25     N/A
WOLF POINT     CLOUDY    66  44  45 W31G39    29.56R
JORDAN           N/A     54  42  64 W33G40    29.70R
WINNETT          N/A     62  18  18 W28G44      N/A
SIDNEY         CLOUDY    75  34  22 W43G49    29.44S
GLENDIVE         N/A     70  36  28 W41G67    29.54R
MALTA            N/A     57  38  48 W24G38      N/A
SCOBEY           N/A     64  42  44 W35G40    29.53R

FORT PECK REPORTS


CITY           SKY/WX    TMP DP  RH WIND       PRES   REMARKS
FORT PECK        N/A     52  42  69 W30G64      N/A
THE PINES        N/A     50  43  77 W16G29      N/A

SOUTHEAST MONTANA


CITY           SKY/WX    TMP DP  RH WIND       PRES   REMARKS
BILLINGS       MOSUNNY   62  28  27 W44G58    29.77R
MILES CITY     CLOUDY    64  43  46 NW22G31   29.61R
BAKER          MOSUNNY   79  29  16 W18G31    29.52F
LIVINGSTON     MOSUNNY   57  15  19 W38G53    29.91F

CENTRAL MONTANA


CITY           SKY/WX    TMP DP  RH WIND       PRES   REMARKS
HAVRE          CLOUDY    56  27  32 W33       29.72R
LEWISTOWN      PTSUNNY   54  17  23 W31G45    29.80F
GREAT FALLS    PTSUNNY   53  23  31 W36G51    29.85R
CUT BANK       CLOUDY    49  27  42 W36G47    29.82R
HELENA         CLOUDY    51  24  34 W24G41    29.97R
BUTTE          MOSUNNY   48  19  31 W18G36    30.05S
BOZEMAN        CLOUDY    55  15  20 W36G45    30.00R

WESTERN MONTANA


CITY           SKY/WX    TMP DP  RH WIND       PRES   REMARKS
MISSOULA       CLOUDY    52  31  44 W15G35    30.13R
KALISPELL      NOT AVBL

NORTH DAKOTA


CITY           SKY/WX    TMP DP  RH WIND       PRES   REMARKS
WILLISTON      CLOUDY    77  36  22 SW17G24   29.40F
DICKINSON      PTSUNNY   78  33  19 S25       29.48F
MINOT          CLOUDY    63  39  41 S18G28    29.48F
BISMARCK       SUNNY     66  35  31 S20G28    29.61F

SOUTHERN SASKATCHEWAN


CITY           SKY/WX    TMP DP  RH WIND       PRES   REMARKS
REGINA         LGT RAIN  50  46  87 NW16      29.47R
ESTEVAN        CLOUDY    68  45  42 W7        29.43
SWIFT CURRENT  LGT RAIN  50  46  87 W15G21    29.54R



USA.gov is the U.S. government's official web portal to all federal, state and local government web resources and services.